ニート彗星

C/2005 O1 ( NEAT )

English version
Home page
Updated on November 12, 2005

---------------------------------------------------------------------

・ プロフィール

発見日 2005年7月27日
発見光度 19.1等
発見者 Near-Earth-Asteroid Tracking Team (Jet Propulsion Laboratory)

・ 軌道要素

T 2005 May 17.3629 TT                                   MPC
q   3.590932             (2000.0)            P               Q
z  +0.019589       Peri.  324.7408      +0.8989937      -0.2830036
                   Node   304.7991      -0.2456251      -0.9576570
e   0.929659       Incl.  155.9810      -0.3625998      -0.0529338
>From 89 observations 2005 July 27-Oct. 7.

・ 光度変化

        m1 = 11.0 + 5 logΔ + 10.0 log r

---------------------------------------------------------------------

軌道要素はM.P.E.C. 2005-T68に掲載されたものです。
光度グラフはComet for Windowsで作成したものです。

---------------------------------------------------------------------

Copyright(C) Seiichi Yoshida (comet@aerith.net). All rights reserved.